Home   Weather   Kvernaland   Past weeks

Flag for Norway Past Weather in Kvernaland, Norway — Yesterday and Last 2 Weeks

Now
41 °F

Passing clouds.


Feels Like: 41 °F
Forecast: 36 / 48 °F
Wind: 1 mph from Northeast

Location: Stavanger / Sola

Current Time: Apr 29, 2017 at 12:15:45 am

Latest Report: Apr 28, 2017 at 11:00 pm


Visibility: 31 mi

Pressure: 29.94 "Hg

Humidity: 62%

Dew Point: 29 °F

Location of KvernalandLocation

Past Weather in Kvernaland — Graph

°F

Kvernaland Temperature Yesterday

Maximum temperature yesterday: 47 °F (at 8:00 pm)
Minimum temperature yesterday: 36 °F (at 6:00 am)
Average temperature yesterday: 42 °F

High & Low Weather Summary for the Past Weeks

 TemperatureHumidityPressure
High47 °F (Apr 28, 8:00 pm)100% (Apr 20, 6:00 pm)30.61 "Hg (Apr 20, 6:00 pm)
Low29 °F (Apr 17, 6:00 am)37% (Apr 25, 6:00 pm)29.50 "Hg (Apr 24, 4:00 am)
Average40 °F76%29.97 "Hg
* Reported Apr 13 10:00 pm — Apr 28 10:00 pm, Kvernaland, Weather by CustomWeather, © 2017

Note: Actual official high and low records may vary slightly from our data, if they occured in-between our weather recording intervals... More about our weather records

Advertising

Kvernaland Weather History for the Previous 24 Hours

Scroll right to see more
 ConditionsComfort  
Time TempWeatherWind HumidityBarometerVisibility
10:00 pm
Fri, Apr 28
44 °FPassing clouds.2 mph57%29.93 "Hg31 mi
9:00 pm44 °FPassing clouds.5 mph54%29.92 "Hg31 mi
8:00 pm47 °FSunny.5 mph49%29.90 "Hg31 mi
7:00 pm46 °FPartly sunny.3 mph51%29.90 "Hg31 mi
6:00 pm45 °FPassing clouds.2 mph55%29.89 "Hg31 mi
5:00 pm44 °FPartly sunny.6 mph53%29.90 "Hg28 mi
4:00 pm45 °FOvercast.6 mph49%29.89 "Hg28 mi
3:00 pm45 °FPartly sunny.6 mph51%29.89 "Hg22 mi
2:00 pm44 °FScattered clouds.8 mph53%29.89 "Hg19 mi
1:00 pm47 °FSunny.7 mph41%29.88 "Hg22 mi
12:00 pm46 °FSunny.7 mph43%29.88 "Hg22 mi
11:00 am45 °FSunny.5 mph40%29.88 "Hg25 mi
10:00 am44 °FSunny.7 mph43%29.89 "Hg25 mi
9:00 am43 °FSunny.7 mph49%29.88 "Hg25 mi
8:00 am41 °FSunny.2 mph62%29.87 "Hg25 mi
7:00 am38 °FSunny.No wind78%29.86 "Hg31 mi
6:00 am36 °FPassing clouds.5 mph83%29.85 "Hg31 mi
5:00 am38 °FPassing clouds.3 mph78%29.84 "Hg31 mi
4:00 am37 °FPassing clouds.3 mph82%29.83 "Hg31 mi
3:00 am37 °FPassing clouds.3 mph87%29.83 "Hg31 mi
2:00 am38 °FPassing clouds.2 mph88%29.82 "Hg31 mi
1:00 am39 °FPassing clouds.1 mph87%29.81 "Hg31 mi
12:00 am39 °FPassing clouds.No wind87%29.82 "Hg31 mi
Weather by CustomWeather, © 2017

See weather overviewHow to use our weather pages